Starlink 2188

operational
NORAD ID: 48563 Int'l Des: 2021-041 Owner: SPXS Country: US Constellation: starlink
LEOCIRCULARSTARLINK_TYPE

关于 Starlink 2188

正在加载描述...

实时位置

正在加载3D地球...

即将过境

高度历史

Altitude vs Time

uPlot chart will show altitude changes over time

两行轨道根数

1 48563U 21041L 25351.62967156 .00000359 00000-0 43012-4 0 9993
2 48563 53.0552 139.9966 0001179 100.0058 260.1064 15.06401090252838
Epoch: Dec 17, 2025 • Age: 25 hours

当前状态

高度 566.4 km
速度 7.58 km/s
星下点 -52.97°S, 67.79°E
发射日期 May 15, 2021
运行时间 4.5 years
类型 internet

技术详情

分类 Payload
质量 260.00 kg
干质量 248.00 kg
总质量 260.00 kg
长度 0.20 m
直径 2.80 m
跨度 9.00 m
形状 Box + pan
制造商 SPXS
平台类型 Starlink
阶段状态 In Orbit
所有者/国家 SPXS/US

大型星座

Loading constellations...